West Tisbury, MA

2:26 AM EDT on August 30, 2016 (GMT -0400)
Martha's Vineyard

Weather History for KMVY - December, 2012

Change the Weather History Date:

Friday, December 28, 2012

  Actual Average Record
Temperature  
Mean Temperature 31 °F -  
Max Temperature 37 °F 38 °F 57 °F (1949)
Min Temperature 25 °F 22 °F -5 °F (1950)
Degree Days  
Heating Degree Days 34    
Moisture  
Dew Point 24 °F    
Average Humidity 70    
Maximum Humidity 92    
Minimum Humidity 53    
Precipitation  
Precipitation 0.00 in - - ()
Sea Level Pressure  
Sea Level Pressure 29.84 in    
Wind  
Wind Speed 14 mph (NW)    
Max Wind Speed 22 mph    
Max Gust Speed 33 mph    
Visibility 9 miles    
Events Snow    
Averages and records for this station are not official NWS values.
T = Trace of Precipitation, MM = Missing Value Source: NWS Daily Summary

Daily Weather History Graph

Daily Weather History Graph

Search for Another Location

Airport or City:

Trip Planner

Search our weather history database for the weather conditions in past years. The results will help you decide how hot, cold, wet, or windy it might be!

Date:

Astronomy

Dec. 28, 2012 Rise Set
Actual Time 7:07 AM EST 4:20 PM EST
Civil Twilight 6:36 AM EST 4:52 PM EST
Nautical Twilight 6:01 AM EST 5:26 PM EST
Astronomical Twilight 5:28 AM EST 6:00 PM EST
Moon 4:55 PM EST (12/28) 6:59 AM EST (12/28)
Length of Visible Light 10h 15m
Length of Day
9h 12m
Full, 100% of the Moon is Illuminated
Dec 28
Full
Jan 4
Last Quarter
Jan 11
New
Jan 18
First Quarter
Jan 26
Full

Hourly Weather History & Observations

Time (EST) Temp. Windchill Dew Point Humidity Pressure Visibility Wind Dir Wind Speed Gust Speed Precip Events Conditions
12:45 AM 33.8 °F 23.2 °F 30.2 °F 87% 29.61 in 1.8 mi NNW 17.3 mph 24.2 mph 0.00 in Snow Light Snow
12:53 AM 33.1 °F 22.6 °F 30.9 °F 92% 29.61 in 2.0 mi NW 16.1 mph - 0.00 in Snow Light Snow
12:58 AM 33.8 °F 25.3 °F 30.2 °F 87% 29.62 in 5.0 mi NW 11.5 mph 19.6 mph 0.00 in Snow Light Snow
1:53 AM 34.0 °F 25.0 °F 28.0 °F 79% 29.66 in 10.0 mi WNW 12.7 mph 25.3 mph 0.00 in   Overcast
2:39 AM 33.8 °F 23.5 °F 26.6 °F 75% 29.69 in 10.0 mi WNW 16.1 mph 26.5 mph N/A   Overcast
2:51 AM 33.8 °F 23.5 °F 26.6 °F 75% 29.69 in 10.0 mi WNW 16.1 mph 24.2 mph N/A   Overcast
2:53 AM 33.1 °F 23.0 °F 26.1 °F 75% 29.70 in 10.0 mi WNW 15.0 mph 24.2 mph N/A   Overcast
3:53 AM 32.0 °F 20.5 °F 25.0 °F 75% 29.72 in 10.0 mi NW 18.4 mph 25.3 mph N/A   Overcast
4:01 AM 32.0 °F 19.8 °F 24.8 °F 75% 29.73 in 10.0 mi NW 20.7 mph 32.2 mph N/A   Overcast
4:53 AM 30.9 °F 20.2 °F 23.0 °F 72% 29.75 in 10.0 mi NW 15.0 mph 26.5 mph N/A   Scattered Clouds
5:17 AM 30.2 °F 17.4 °F 21.2 °F 69% 29.77 in 10.0 mi NW 20.7 mph 33.4 mph N/A   Mostly Cloudy
6:53 AM 28.9 °F 17.3 °F 19.9 °F 69% 29.83 in 10.0 mi NW 16.1 mph 27.6 mph N/A   Scattered Clouds
7:53 AM 30.0 °F 17.5 °F 19.9 °F 66% 29.86 in 10.0 mi NW 19.6 mph 27.6 mph N/A   Scattered Clouds
8:53 AM 30.9 °F 19.8 °F 21.0 °F 67% 29.89 in 10.0 mi NW 16.1 mph 23.0 mph N/A   Partly Cloudy
9:53 AM 33.1 °F 20.9 °F 21.0 °F 61% 29.91 in 10.0 mi NW 21.9 mph - N/A   Clear
10:53 AM 35.1 °F 24.8 °F 21.9 °F 59% 29.91 in 10.0 mi NW 17.3 mph 24.2 mph N/A   Clear
11:53 AM 35.1 °F 25.5 °F 21.9 °F 59% 29.89 in 10.0 mi NNW 15.0 mph 24.2 mph N/A   Clear
12:53 PM 37.0 °F 27.4 °F 21.9 °F 54% 29.89 in 10.0 mi WNW 17.3 mph 21.9 mph N/A   Clear
1:53 PM 37.9 °F 30.5 °F 21.9 °F 53% 29.89 in 10.0 mi NW 11.5 mph - N/A   Clear
2:53 PM 37.0 °F 29.8 °F 21.9 °F 54% 29.93 in 10.0 mi NW 10.4 mph - N/A   Clear
3:53 PM 36.0 °F 29.6 °F 21.9 °F 57% 29.94 in 10.0 mi NW 8.1 mph - N/A   Clear
4:53 PM 33.1 °F 26.9 °F 21.9 °F 64% 29.96 in 10.0 mi WNW 6.9 mph - N/A   Clear
5:53 PM 34.0 °F 26.6 °F 23.0 °F 64% 29.97 in 10.0 mi WNW 9.2 mph - N/A   Clear
6:53 PM 34.0 °F 25.5 °F 23.0 °F 64% 30.00 in 10.0 mi WNW 11.5 mph - N/A   Clear
7:53 PM 34.0 °F 25.5 °F 23.0 °F 64% 30.00 in 10.0 mi NW 11.5 mph 19.6 mph N/A   Clear
8:53 PM 32.0 °F - 23.0 °F 69% 30.00 in 10.0 mi Calm Calm - N/A   Clear
9:53 PM 32.0 °F 26.4 °F 23.0 °F 69% 30.01 in 10.0 mi NW 5.8 mph - N/A   Clear
10:53 PM 25.0 °F - 21.0 °F 85% 30.02 in 10.0 mi Calm Calm - N/A   Clear
11:53 PM 30.0 °F - 24.1 °F 79% 30.02 in 10.0 mi Calm Calm - N/A   Clear